Weather History for KMCO - July, 2012

Change the Weather History Date:

Monday, July 23, 2012

  Actual Average Record
Temperature  
Mean Temperature 82 °F 83 °F  
Max Temperature 92 °F 92 °F 98 °F (1962)
Min Temperature 72 °F 74 °F 65 °F (1909)
Degree Days  
Heating Degree Days 0 0  
Month to date heating degree days 0 0  
Since 1 June heating degree days 0 0  
Since 1 July heating degree days 0 0  
Cooling Degree Days 17 18  
Month to date cooling degree days 413 406  
Year to date cooling degree days 1904 1697  
Since 1 June cooling degree days 865 896  
Growing Degree Days 32 (Base 50)    
Moisture  
Dew Point 73 °F    
Average Humidity 78    
Maximum Humidity 100    
Minimum Humidity 56    
Precipitation  
Precipitation 0.29 in 0.24 in 3.07 in (1958)
Month to date precipitation 2.83 5.34  
Year to date precipitation 21.84 27.55  
Sea Level Pressure  
Sea Level Pressure 30.16 in    
Wind  
Wind Speed 7 mph (SE)    
Max Wind Speed 33 mph    
Max Gust Speed 41 mph    
Visibility 10 miles    
Events Rain , Thunderstorm    
T = Trace of Precipitation, MM = Missing Value Source: NWS Daily Summary

Daily Weather History Graph

Daily Weather History Graph

Search for Another Location

Airport or City:

Trip Planner

Search our weather history database for the weather conditions in past years. The results will help you decide how hot, cold, wet, or windy it might be!

Date:

Astronomy

Jul. 23, 2012 Rise Set
Actual Time 6:42 AM EDT 8:20 PM EDT
Civil Twilight 6:16 AM EDT 8:46 PM EDT
Nautical Twilight 5:45 AM EDT 9:17 PM EDT
Astronomical Twilight 5:12 AM EDT 9:50 PM EDT
Moon 11:01 AM EDT (7/23) 11:07 PM EDT (7/23)
Length of Visible Light 14h 30m
Length of Day
13h 38m
Waxing Crescent, 21% of the Moon is Illuminated
Jul 23
Waxing Crescent
Jul 26
First Quarter
Aug 1
Full
Aug 9
Last Quarter
Aug 17
New

Hourly Weather History & Observations

Time (EDT) Temp. Heat Index Dew Point Humidity Pressure Visibility Wind Dir Wind Speed Gust Speed Precip Events Conditions
12:53 AM 75.9 °F - 73.0 °F 91% 30.15 in 10.0 mi SE 3.5 mph - 0.00 in   Mostly Cloudy
1:53 AM 75.2 °F - 73.4 °F 94% 30.15 in 10.0 mi North 3.5 mph - N/A   Mostly Cloudy
2:53 AM 75.2 °F - 73.4 °F 94% 30.15 in 10.0 mi Calm Calm - N/A   Mostly Cloudy
3:53 AM 75.2 °F - 73.4 °F 94% 30.14 in 10.0 mi ENE 4.6 mph - N/A   Scattered Clouds
4:53 AM 75.9 °F - 73.9 °F 94% 30.14 in 10.0 mi ENE 5.8 mph - N/A   Mostly Cloudy
5:53 AM 75.2 °F - 73.4 °F 94% 30.15 in 10.0 mi East 5.8 mph - N/A   Mostly Cloudy
6:53 AM 75.0 °F - 73.9 °F 96% 30.15 in 10.0 mi ESE 4.6 mph - N/A   Scattered Clouds
7:53 AM 77.0 °F - 75.2 °F 94% 30.17 in 10.0 mi ESE 9.2 mph - N/A   Scattered Clouds
8:53 AM 77.0 °F - 73.4 °F 89% 30.17 in 10.0 mi ESE 6.9 mph - N/A   Mostly Cloudy
9:53 AM 80.6 °F 86.2 °F 75.2 °F 84% 30.17 in 10.0 mi ESE 9.2 mph - N/A   Mostly Cloudy
10:53 AM 86.0 °F 93.8 °F 73.9 °F 67% 30.17 in 10.0 mi ESE 8.1 mph - N/A   Mostly Cloudy
11:53 AM 86.0 °F 93.8 °F 73.9 °F 67% 30.16 in 10.0 mi SE 11.5 mph - N/A   Mostly Cloudy
12:53 PM 87.8 °F 95.6 °F 73.4 °F 62% 30.16 in 10.0 mi South 12.7 mph 17.3 mph N/A   Mostly Cloudy
1:53 PM 89.6 °F 98.2 °F 73.4 °F 59% 30.12 in 10.0 mi South 10.4 mph 16.1 mph N/A   Mostly Cloudy
2:53 PM 89.1 °F 98.0 °F 73.9 °F 61% 30.12 in 10.0 mi SSE 11.5 mph - N/A   Mostly Cloudy
3:53 PM 91.4 °F 100.1 °F 73.4 °F 55% 30.09 in 10.0 mi ESE 9.2 mph - N/A   Mostly Cloudy
4:56 PM 75.2 °F - 69.8 °F 83% 30.14 in 7.0 mi South 21.9 mph 41.4 mph 0.00 in Rain , Thunderstorm Light Thunderstorms and Rain
5:34 PM 73.4 °F - 69.8 °F 88% 30.16 in 5.0 mi South 13.8 mph - 0.07 in Rain , Thunderstorm Thunderstorms and Rain
6:40 PM 73.4 °F - 71.6 °F 94% 30.19 in 10.0 mi NNW 5.8 mph - 0.04 in Rain Light Rain
6:50 PM 73.4 °F - 71.6 °F 94% 30.19 in 10.0 mi NW 3.5 mph - 0.04 in Rain , Thunderstorm Light Thunderstorms and Rain
6:53 PM 73.9 °F - 71.1 °F 91% 30.19 in 10.0 mi NW 3.5 mph - 0.04 in Rain , Thunderstorm Light Thunderstorms and Rain
7:09 PM 73.4 °F - 71.6 °F 94% 30.19 in 9.0 mi Calm Calm - 0.01 in Rain , Thunderstorm Light Thunderstorms and Rain
7:30 PM 73.4 °F - 71.6 °F 94% 30.19 in 10.0 mi Calm Calm - N/A Rain Light Rain
7:53 PM 73.4 °F - 71.6 °F 94% 30.18 in 9.0 mi Calm Calm - N/A Rain Light Rain
8:53 PM 73.4 °F - 71.6 °F 94% 30.17 in 10.0 mi Calm Calm - N/A Rain Light Rain
9:41 PM 73.4 °F - 73.4 °F 100% 30.17 in 10.0 mi ESE 3.5 mph - 0.02 in Rain Light Rain
9:53 PM 73.9 °F - 73.0 °F 97% 30.17 in 10.0 mi SE 5.8 mph - 0.03 in Rain Light Rain
10:53 PM 73.4 °F - 71.6 °F 94% 30.15 in 10.0 mi Calm Calm - N/A   Overcast
11:53 PM 73.4 °F - 71.6 °F 94% 30.15 in 10.0 mi Calm Calm - N/A   Mostly Cloudy